Precipitable_Water
0.74 0.96 1.07 1.16 1.22 1.18 1.11 1.06 1.04 1.00 1.00 1.05 1.11 1.14 1.19 1.22 1.22 1.19 1.19 1.23 1.29 1.38 1.42 1.39 1.36 1.37 1.38 1.39 1.44 1.48 1.58 1.67 1.69 1.69 1.80 1.73 1.66 1.65 1.63 1.62 1.63 1.60 1.61
0.85 1.04 1.09 1.16 1.21 1.18 1.14 1.09 1.03 1.02 0.99 0.96 1.00 1.06 1.10 1.14 1.17 1.18 1.19 1.23 1.28 1.37 1.41 1.35 1.34 1.38 1.41 1.44 1.50 1.58 1.65 1.70 1.73 1.80 1.78 1.73 1.75 1.66 1.63 1.64 1.55 1.59 1.63
0.84 1.07 1.13 1.17 1.21 1.17 1.12 1.06 1.02 1.02 0.99 0.94 0.97 1.02 1.09 1.13 1.18 1.21 1.20 1.24 1.30 1.35 1.37 1.31 1.35 1.42 1.43 1.48 1.52 1.58 1.59 1.62 1.70 1.74 1.76 1.66 1.67 1.65 1.67 1.57 1.56 1.62 1.66
0.90 1.04 1.14 1.21 1.25 1.25 1.15 1.06 1.04 1.07 1.04 1.00 0.98 1.02 1.08 1.14 1.22 1.22 1.22 1.24 1.31 1.36 1.33 1.35 1.38 1.40 1.43 1.49 1.56 1.56 1.57 1.57 1.63 1.65 1.64 1.62 1.62 1.62 1.63 1.58 1.59 1.64 1.63
0.92 1.04 1.13 1.22 1.25 1.22 1.16 1.11 1.11 1.12 1.09 1.04 1.02 1.04 1.09 1.15 1.21 1.22 1.24 1.28 1.34 1.36 1.35 1.38 1.40 1.38 1.43 1.53 1.56 1.53 1.52 1.54 1.55 1.56 1.58 1.57 1.61 1.61 1.58 1.59 1.62 1.63 1.62
0.95 1.06 1.11 1.18 1.21 1.15 1.14 1.12 1.10 1.10 1.07 1.06 1.07 1.07 1.10 1.15 1.18 1.22 1.24 1.27 1.31 1.36 1.39 1.42 1.39 1.37 1.43 1.50 1.49 1.45 1.46 1.49 1.48 1.53 1.55 1.53 1.57 1.60 1.60 1.60 1.61 1.60 1.58
0.91 1.02 1.10 1.13 1.12 1.14 1.09 1.10 1.11 1.11 1.10 1.10 1.12 1.12 1.13 1.15 1.19 1.22 1.26 1.29 1.32 1.35 1.42 1.43 1.38 1.39 1.44 1.43 1.38 1.39 1.42 1.42 1.45 1.50 1.51 1.50 1.54 1.59 1.64 1.64 1.62 1.57 1.55
0.92 1.00 1.04 1.08 1.07 1.05 1.04 1.04 1.07 1.11 1.12 1.11 1.14 1.15 1.15 1.16 1.20 1.22 1.26 1.28 1.31 1.34 1.41 1.45 1.42 1.44 1.41 1.38 1.38 1.44 1.42 1.43 1.45 1.44 1.47 1.42 1.48 1.62 1.64 1.62 1.62 1.55 1.53
1.00 1.03 1.09 1.08 1.04 0.98 0.95 0.97 1.01 1.06 1.09 1.12 1.14 1.15 1.16 1.17 1.19 1.20 1.24 1.26 1.27 1.30 1.35 1.41 1.42 1.41 1.39 1.40 1.45 1.39 1.40 1.32 1.38 1.34 1.43 1.42 1.47 1.58 1.63 1.62 1.59 1.56 1.53
1.00 1.06 1.08 1.05 1.04 1.01 0.99 0.97 0.96 1.01 1.04 1.11 1.14 1.15 1.15 1.18 1.19 1.19 1.20 1.23 1.24 1.25 1.32 1.37 1.40 1.39 1.40 1.41 1.41 1.40 1.40 1.44 1.48 1.55 1.44 1.41 1.50 1.66 1.66 1.61 1.61 1.58 1.48
0.97 1.02 1.07 1.03 1.01 1.03 1.00 1.00 1.01 1.00 1.03 1.06 1.11 1.13 1.17 1.18 1.20 1.19 1.17 1.20 1.22 1.25 1.32 1.37 1.40 1.43 1.43 1.46 1.48 1.40 1.45 1.48 1.47 1.50 1.49 1.44 1.51 1.72 1.73 1.64 1.62 1.54 1.47
0.88 0.95 1.01 1.00 0.98 1.03 1.05 1.03 1.03 1.04 1.03 1.05 1.09 1.13 1.17 1.18 1.20 1.19 1.18 1.20 1.22 1.25 1.31 1.36 1.44 1.46 1.52 1.48 1.47 1.48 1.46 1.44 1.48 1.52 1.52 1.51 1.55 1.72 1.73 1.74 1.69 1.57 1.48
1.04 1.02 1.02 1.06 1.04 1.03 1.02 1.03 1.02 1.04 1.02 1.04 1.06 1.11 1.15 1.18 1.20 1.18 1.16 1.19 1.20 1.23 1.25 1.32 1.35 1.40 1.42 1.42 1.45 1.47 1.47 1.45 1.45 1.56 1.57 1.56 1.60 1.72 1.72 1.82 1.69 1.57 1.51
1.15 1.12 1.14 1.12 1.10 1.08 1.08 1.03 1.02 1.03 1.03 1.00 1.03 1.05 1.06 1.12 1.13 1.11 1.11 1.13 1.15 1.18 1.20 1.27 1.31 1.34 1.40 1.44 1.48 1.49 1.52 1.50 1.50 1.61 1.58 1.56 1.58 1.69 1.69 1.74 1.64 1.59 1.50
1.22 1.35 1.24 1.26 1.20 1.17 1.12 1.10 1.04 1.03 1.04 1.05 1.02 1.05 1.06 1.08 1.10 1.10 1.09 1.13 1.14 1.17 1.17 1.21 1.24 1.28 1.32 1.42 1.53 1.49 1.48 1.48 1.51 1.64 1.64 1.58 1.60 1.65 1.72 1.67 1.63 1.61 1.55
0.50 0.72 1.35 1.36 1.34 1.28 1.19 1.15 1.11 1.10 1.07 1.04 1.05 1.05 1.06 1.09 1.11 1.10 1.08 1.11 1.13 1.14 1.17 1.21 1.23 1.24 1.34 1.46 1.48 1.49 1.45 1.57 1.55 1.60 1.61 1.64 1.57 1.57 1.71 1.71 1.66 1.61 1.54
0.41 0.47 0.65 0.91 1.14 1.29 1.24 1.17 1.15 1.12 1.12 1.12 1.08 1.10 1.09 1.10 1.11 1.11 1.08 1.09 1.13 1.16 1.17 1.20 1.22 1.27 1.32 1.46 1.45 1.47 1.52 1.51 1.47 1.54 1.58 1.57 1.60 1.63 1.67 1.63 1.64 1.54 1.46
0.41 0.42 0.53 0.69 0.79 1.00 1.20 1.25 1.20 1.15 1.13 1.15 1.23 1.14 1.12 1.10 1.14 1.13 1.08 1.07 1.15 1.16 1.15 1.15 1.16 1.18 1.27 1.37 1.41 1.42 1.47 1.50 1.46 1.51 1.53 1.58 1.65 1.64 1.60 1.59 1.46 1.41 1.41
0.41 0.43 0.45 0.60 0.71 0.79 0.93 1.13 1.24 1.25 1.22 1.19 1.34 1.18 1.10 1.12 1.15 1.14 1.09 1.09 1.15 1.15 1.10 1.10 1.10 1.15 1.16 1.30 1.32 1.37 1.44 1.50 1.46 1.47 1.47 1.52 1.61 1.61 1.56 1.57 1.44 1.35 1.24
0.38 0.40 0.41 0.46 0.65 0.77 0.90 1.03 1.20 1.25 1.19 1.20 1.22 1.34 1.16 1.15 1.17 1.14 1.13 1.11 1.13 1.12 1.06 1.05 1.04 1.11 1.14 1.21 1.31 1.34 1.44 1.52 1.51 1.47 1.47 1.51 1.53 1.59 1.60 1.50 1.40 1.32 1.13
0.43 0.39 0.39 0.41 0.55 0.74 0.84 0.89 0.98 1.10 1.09 1.09 1.18 1.36 1.33 1.18 1.19 1.18 1.15 1.14 1.13 1.09 1.06 1.03 1.04 1.02 1.09 1.22 1.22 1.25 1.38 1.48 1.49 1.50 1.50 1.49 1.51 1.54 1.60 1.50 1.39 1.25 1.09
0.54 0.53 0.44 0.42 0.52 0.69 0.80 0.87 0.86 0.93 1.06 1.01 1.14 1.29 1.42 1.34 1.22 1.24 1.21 1.17 1.13 1.10 1.08 1.03 1.00 0.95 1.04 1.15 1.06 1.07 1.02 1.20 1.37 1.42 1.42 1.42 1.47 1.52 1.55 1.48 1.37 1.26 1.05
0.57 0.57 0.56 0.56 0.55 0.69 0.77 0.87 0.92 0.97 1.07 1.07 1.07 1.19 1.34 1.43 1.41 1.38 1.30 1.23 1.19 1.13 1.05 1.06 1.00 0.97 0.92 1.03 1.11 0.97 0.86 0.83 1.07 1.28 1.22 1.32 1.42 1.48 1.54 1.46 1.37 1.24 1.04
0.67 0.68 0.63 0.63 0.64 0.73 0.80 0.83 0.81 0.77 0.72 0.85 0.93 1.08 1.19 1.35 1.46 1.48 1.38 1.29 1.22 1.11 1.08 1.08 1.01 0.99 1.02 0.92 1.05 1.10 1.06 1.02 0.88 0.84 1.07 1.21 1.41 1.44 1.49 1.44 1.35 1.25 1.07
0.72 0.73 0.76 0.71 0.69 0.71 0.87 0.82 0.76 0.76 0.80 0.83 0.87 0.93 1.17 1.24 1.42 1.44 1.42 1.32 1.19 1.08 1.12 1.13 1.00 0.97 1.06 1.02 1.00 1.03 1.08 1.07 1.06 0.88 0.78 0.97 1.29 1.39 1.47 1.41 1.37 1.27 1.02
0.70 0.77 0.79 0.81 0.78 0.77 0.94 0.87 0.81 0.74 0.80 0.85 0.87 0.89 1.05 1.20 1.33 1.37 1.34 1.28 1.17 1.09 1.11 1.16 1.04 1.00 1.02 1.10 1.12 1.12 1.10 1.05 1.03 0.98 0.85 0.96 1.07 1.24 1.40 1.40 1.35 1.27 1.03
Wind_Speed
16 16 15 13 11 9 8 7 6 6 5 5 6 6 7 7 7 6 6 6 6 6 6 7 7 6 7 7 7 7 7 8 8 8 8 7 7 7 7 7 6 7 7
15 17 16 14 13 11 10 8 7 7 7 6 6 7 7 7 7 7 6 7 7 8 8 8 8 7 7 6 6 7 7 7 7 8 8 7 8 8 8 7 7 8 8
16 16 16 16 14 12 12 11 10 9 8 8 8 8 8 8 8 8 7 7 8 8 9 9 9 8 8 8 7 7 8 8 8 8 9 9 9 9 9 8 8 9 9
16 16 16 16 15 14 13 12 11 11 10 10 9 9 9 9 9 9 8 8 8 9 9 9 9 9 8 8 8 8 8 8 9 9 10 10 11 11 10 10 10 10 10
15 16 16 16 16 15 15 13 13 13 12 12 11 11 10 10 10 10 9 9 9 9 10 10 10 10 9 9 9 9 9 9 9 9 10 11 12 12 12 11 11 11 10
16 17 17 17 17 16 16 15 15 15 14 14 13 12 12 12 12 11 11 11 10 10 11 11 11 11 10 10 10 10 10 10 10 10 11 12 13 13 13 12 12 12 11
18 18 18 17 17 18 17 17 16 16 15 15 15 14 14 14 13 13 13 12 12 11 12 12 12 11 11 11 10 10 10 11 11 11 11 14 14 14 14 13 13 13 12
19 19 18 18 18 18 18 18 17 17 17 16 16 16 15 15 15 15 14 14 13 13 13 13 13 13 12 12 11 11 11 12 12 13 13 15 16 16 15 14 14 13 13
20 20 19 19 18 17 18 18 18 18 18 18 17 17 16 16 16 16 16 15 15 15 15 14 14 14 14 13 12 12 13 13 14 14 15 16 18 18 17 16 15 14 14
21 21 21 20 20 20 19 18 19 19 19 18 18 18 17 17 17 17 17 17 16 16 16 15 15 15 15 15 15 14 14 14 15 15 16 17 19 19 19 17 16 16 14
22 23 23 22 22 21 20 19 19 19 19 19 19 19 18 18 18 18 18 18 17 17 17 16 17 17 17 17 17 16 16 15 14 15 17 18 20 20 20 19 18 17 15
24 24 24 23 23 23 21 21 20 20 20 20 20 19 19 19 19 19 19 19 18 18 18 18 18 18 18 18 19 18 18 17 16 16 18 18 20 21 21 20 19 17 16
25 26 27 25 25 24 24 23 22 22 22 22 21 20 20 20 19 19 19 19 19 19 18 19 19 19 20 20 19 19 19 19 19 18 18 20 21 21 22 21 20 18 16
27 28 28 28 27 27 26 26 25 24 23 23 23 22 21 21 20 19 19 19 19 19 19 19 20 20 20 20 20 19 19 19 20 21 19 23 23 23 23 22 20 19 17
33 32 32 32 30 30 29 28 27 27 26 26 25 24 22 22 20 20 19 19 19 20 20 20 21 21 21 21 21 21 21 21 22 20 21 24 25 24 25 24 22 20 18
34 36 36 37 36 33 32 31 29 28 28 29 28 27 24 23 22 21 20 19 19 20 20 21 21 22 21 21 21 21 22 21 22 23 23 26 26 26 25 25 24 21 19
37 38 37 38 39 39 36 34 32 31 29 30 30 29 28 25 23 22 21 20 19 19 20 20 21 21 22 22 22 23 23 21 23 24 24 25 25 26 25 22 22 21 20
39 39 40 41 41 41 40 39 37 34 32 30 32 31 30 27 25 23 22 21 20 19 20 21 21 21 22 22 20 20 24 22 19 21 22 24 26 25 25 23 22 21 21
40 40 40 41 43 45 43 41 40 38 35 32 32 33 32 30 27 25 23 21 20 19 20 20 20 20 21 21 20 19 23 24 20 17 23 24 26 27 26 26 24 23 22
40 40 41 42 43 45 46 43 42 40 38 35 33 33 34 32 30 27 24 22 20 19 19 20 19 20 21 22 21 20 21 22 22 20 20 22 28 30 29 26 25 24 24
38 39 39 40 40 40 44 45 44 43 40 37 35 34 35 35 33 29 26 24 22 20 19 19 19 19 19 21 20 20 21 23 25 23 21 21 28 32 31 28 26 25 24
35 36 38 39 39 39 40 42 42 42 41 39 37 36 35 35 34 32 28 26 23 21 20 20 20 19 20 21 20 19 19 19 21 25 23 24 26 34 32 30 28 26 25
32 35 36 37 40 40 38 38 40 40 39 39 39 37 35 35 35 33 31 28 25 23 22 21 21 21 20 21 22 20 19 21 21 24 26 25 28 35 34 32 29 27 26
31 33 36 36 39 41 40 38 40 40 39 39 40 38 36 36 36 34 32 29 26 24 22 22 22 23 22 22 23 25 23 21 21 21 22 22 26 35 35 32 30 28 27
32 32 33 35 36 39 41 40 38 39 40 38 37 39 37 35 35 33 32 30 27 25 23 23 23 24 24 24 25 25 25 24 23 22 21 21 22 33 36 33 32 30 28
31 30 28 30 32 36 41 41 39 37 37 37 37 37 37 36 35 33 32 30 28 26 24 23 24 24 24 24 25 26 26 26 26 24 23 23 24 30 36 35 33 31 30
Wind_Direction
228 218 215 216 220 221 223 230 238 244 253 256 250 242 242 248 255 260 258 255 252 251 250 248 250 260 265 264 257 251 244 244 241 240 222 217 203 193 188 182 178 174 165
223 219 219 218 223 223 226 230 240 246 253 259 256 248 244 247 250 257 258 257 254 252 252 252 250 258 266 264 255 248 243 243 235 223 218 226 188 197 194 192 185 177 171
222 220 224 224 222 226 232 237 241 247 252 257 256 251 247 247 247 255 259 260 257 256 253 250 251 256 261 262 253 247 245 239 230 226 225 222 217 204 197 195 188 181 176
221 224 227 228 228 233 236 240 244 248 252 256 255 253 249 246 247 252 256 259 257 258 253 250 252 256 258 255 249 246 244 237 233 233 229 221 214 206 200 198 193 187 181
226 227 231 232 236 237 239 242 246 251 254 254 254 254 250 247 249 251 253 257 257 258 254 252 255 257 253 252 249 247 243 241 238 235 227 219 213 204 202 199 194 188 184
232 231 232 235 237 238 240 245 250 252 253 252 252 252 250 250 250 251 253 256 256 258 256 255 257 255 253 250 250 248 245 243 239 234 226 217 211 204 203 199 193 188 185
237 233 233 236 239 241 245 248 249 249 250 250 252 252 250 250 250 251 252 254 256 257 258 257 257 254 251 248 248 247 245 244 241 233 229 218 209 204 200 195 192 188 186
234 233 234 238 244 245 247 249 248 247 248 250 252 251 250 251 251 250 251 253 255 258 260 257 255 252 248 246 248 246 250 246 243 236 229 220 210 203 199 196 192 189 186
235 234 237 241 245 246 248 249 248 247 247 249 250 251 251 251 250 250 250 251 253 258 259 256 254 250 248 247 247 252 251 246 246 238 230 218 210 204 200 197 195 192 188
238 239 242 245 245 247 251 250 249 247 246 247 249 251 252 251 251 250 249 251 253 257 258 255 253 250 248 247 251 252 251 249 248 239 228 218 212 204 200 199 195 192 190
243 244 244 247 247 247 251 251 250 247 246 248 249 252 252 252 251 250 249 250 252 256 257 255 253 251 248 253 250 252 253 249 245 229 221 217 212 207 201 199 196 193 192
244 245 246 248 248 247 248 249 250 248 247 248 249 251 252 252 252 251 250 249 252 256 256 256 254 254 251 254 254 253 248 243 239 233 222 219 212 208 203 199 195 196 194
251 248 247 248 247 247 249 249 250 249 248 247 248 250 252 252 251 251 249 250 252 256 257 257 256 256 258 256 252 252 246 243 240 231 225 218 213 210 206 197 197 198 199
252 251 250 250 248 248 248 249 250 249 247 248 248 249 251 252 251 250 249 250 254 257 258 258 258 259 257 254 250 247 248 241 238 232 231 220 217 213 207 204 204 204 208
252 251 253 251 250 249 248 248 249 250 250 249 247 247 248 249 250 248 249 251 255 257 259 259 260 259 257 252 246 248 244 248 236 234 233 224 219 216 210 207 207 208 214
258 255 251 251 250 250 249 248 249 251 252 249 247 245 245 246 248 246 248 253 257 259 260 260 260 258 256 248 248 254 247 242 240 246 245 223 219 216 212 210 209 216 221
259 256 253 251 250 249 248 247 250 252 252 250 246 243 242 244 246 244 248 253 258 261 261 262 260 258 255 249 248 257 239 233 255 252 233 219 218 213 212 217 214 219 222
260 257 254 252 251 249 248 247 249 250 251 249 245 241 240 240 241 244 248 253 258 263 263 262 261 258 250 246 251 252 239 251 254 240 220 219 218 215 218 221 220 224 224
259 257 256 254 251 249 248 246 247 247 247 248 245 240 238 237 239 243 247 252 257 264 264 263 261 253 248 245 250 254 242 242 245 232 225 224 222 221 220 220 226 227 227
260 257 257 255 253 250 247 245 245 244 245 246 244 240 237 236 237 240 245 250 256 262 265 262 257 251 249 245 249 250 244 243 238 235 232 235 226 223 222 224 226 228 229
264 260 257 254 253 251 245 243 241 241 242 242 242 239 236 235 236 237 242 247 252 259 264 261 254 250 250 246 247 249 245 240 239 238 242 245 233 225 223 225 227 227 230
265 262 259 255 251 248 244 242 240 238 239 240 239 237 235 233 235 236 239 244 249 256 262 259 250 251 251 246 245 245 245 242 242 241 249 251 240 223 223 224 224 228 229
270 264 260 257 252 246 243 240 239 237 237 236 235 235 235 234 234 236 237 241 247 253 258 256 249 250 251 248 244 244 246 247 245 244 254 250 241 223 222 222 224 227 229
277 269 261 259 254 245 240 238 236 236 235 236 234 235 234 234 232 232 236 239 244 250 254 254 252 251 252 251 246 244 247 246 245 251 252 252 237 220 219 222 224 227 229
278 276 265 259 256 244 236 235 235 234 234 235 232 230 231 231 229 231 234 237 241 247 252 253 252 253 252 252 249 246 245 247 247 251 252 247 238 223 220 223 223 228 229
278 274 270 260 257 244 235 233 233 233 230 230 229 227 226 227 227 231 233 236 240 245 250 253 253 254 254 253 249 247 246 246 247 251 252 245 239 228 221 223 225 229 230